Regional Weather Roundup
Issued by NWS New Orleans/Baton Rouge, LA

Home | Current Version | Previous Version | Text Only | Print | Product List | Glossary On
Versions: 1 2 3 4 5 6 7 8 9 10 11 12 13 14 15 16 17 18 19 20 21 22 23 24 25 26 27 28 29 30 31 32 33 34 35 36 37 38 39 40 41 42 43 44 45 46 47 48 49 50
024
ASUS44 KLIX 201801
RWRLIX
NEW ORLEANS REGIONAL WEATHER ROUNDUP
NATIONAL WEATHER SERVICE NEW ORLEANS LA
100 PM CDT SAT SEP 20 2014

NOTE: "FAIR" INDICATES FEW OR NO CLOUDS BELOW 12,000 FEET WITH NO
      SIGNIFICANT WEATHER AND/OR OBSTRUCTIONS TO VISIBILITY.
      SKY/WX - SKY CONDITION AND SIGNIFICANT WEATHER.
      TMP - AIR TEMPERATURE.     DP    - DEWPOINT TEMPERATURE.
      RH  - RELATIVE HUMIDITY.   PRES  - PRESSURE.
      HI  - HEAT INDEX.          WCI   - WIND CHILL INDEX.

*  THESE STATIONS ARE NOT NWS OR FAA STATIONS AND ARE NOT UNDER
   NWS QUALITY CONTROL.

LAZ038-040-048-061>063-065>067-069-201900-
SOUTHEAST LOUISIANA

CITY           SKY/WX    TMP DP  RH WIND       PRES   REMARKS
N.O. AUDUBON     N/A     86  73  65 MISG        N/A
6HR MIN TEMP:  77; 6HR MAX TEMP:  87;

N.O. INTL ARPT MOSUNNY   85  67  54 NE14G24   29.98F
6HR MIN TEMP:  78; 6HR MAX TEMP:  87;

N.O. LAKEFRONT MOSUNNY   85  70  60 E16       29.99F
6HR MIN TEMP:  77; 6HR MAX TEMP:  85;

N.O. DOWNTOWN*   N/A     84  68  58 NE10G18   29.99F
6HR MIN TEMP:  75; 6HR MAX TEMP:  84;

SLIDELL        MOSUNNY   87  67  51 E9        29.99F
6HR MIN TEMP:  71; 6HR MAX TEMP:  88;

BATON ROUGE    MOSUNNY   87  69  54 NE13      29.99F
6HR MIN TEMP:  69; 6HR MAX TEMP:  87;

BOOTHVILLE     MOSUNNY   85  73  67 E15G23    29.97F
6HR MIN TEMP:  80; 6HR MAX TEMP:  85; 6HR PCP: TRACE;

BELLE CHASSE   MOSUNNY   85  71  63 E15       29.98F
6HR MIN TEMP:  76; 6HR MAX TEMP:  87; 6HR PCP:  0.01;

BOGALUSA*        N/A     88  67  49 NE9       30.02F
6HR MIN TEMP:  69; 6HR MAX TEMP:  89;

GALLIANO*      NOT AVBL
NEW ROADS*     MOCLDY    87  68  54 NE6       30.00F
6HR MIN TEMP:  68; 6HR MAX TEMP:  87;

GONZALES*        N/A     86  68  55 E8G17     29.98F
6HR MIN TEMP:  71; 6HR MAX TEMP:  87;

HAMMOND*       NOT AVBL
HOUMA*         PTSUNNY   88  54  31 E14       29.97F
PORT FOURCHON* PTCLDY    84  72  65 E16G25    29.98F

$$

MSZ070-080>082-201900-
SOUTHERN MISSISSIPPI

CITY           SKY/WX    TMP DP  RH WIND       PRES   REMARKS
MCCOMB         SUNNY     84  67  56 SE8       30.02F
6HR MIN TEMP:  71; 6HR MAX TEMP:  85;

GULFPORT       MOSUNNY   86  67  52 E13       29.99F
6HR MIN TEMP:  72; 6HR MAX TEMP:  88;

BILOXI         SUNNY     88  67  49 E13       29.99F
6HR MIN TEMP:  71; 6HR MAX TEMP:  88;

PASCAGOULA     MOSUNNY   86  67  52 E9        29.99F
6HR MIN TEMP:  69; 6HR MAX TEMP:  86;

STENNIS ARPT*  MOSUNNY   86  63  45 NE9       30.00F

$$

COASTAL OBSERVATIONS
LAKE AND NEARSHORE STATIONS

STATION/POSITION TIME  TEMP    WIND        PRES    WAVE
                       AIR SEA DIR/SP/G            HT/PER
                 (UTC) (F)     (DEG/KT/KT) (MB)    (FT/S)
PASCAGOULA       1700   85      70/ 14/ 17 1015.7
WAVELAND YACHT   1700   81     140/ 11/ 14 1015.4
GRAND ISLE       1700   84 81   80/ 14/ 18 1015.4
SOUTHWEST PASS   1700   87 89   80/ 20/ 24 1014.7
NEW CANAL        1700   82 81   70/ 18/ 21 1015.9
SHELL BEACH      1700   81 78   70/ 19/ 22 1015.4

OFFSHORE STATIONS

STATION/POSITION TIME  TEMP    WIND        PRES    WAVE
                       AIR SEA DIR/SP/G            HT/PER
                 (UTC) (F)     (DEG/KT/KT) (MB)    (FT/S)
64 S DAUPHIN ISL 1656   80 84   70/ 16/ 21 1014.9    5/ 7

$$




USA.gov is the U.S. government's official web portal to all federal, state and local government web resources and services.